Regional Weather Roundup
Issued by NWS

Home | Current Version | Previous Version | Graphics & Text | Print | Product List | Glossary Off
Versions: 1 2 3 4 5 6 7 8 9 10 11 12 13 14 15 16 17 18 19 20 21 22 23 24 25 26 27 28 29 30 31 32 33 34 35 36 37 38 39 40 41 42 43 44 45 46 47 48 49 50

000
ASUS43 KTOP 251759
RWRKS

WEATHER ROUNDUP FOR KANSAS
NATIONAL WEATHER SERVICE GOODLAND KS
1200 PM CST SUN FEB 25 2018

NOTE:  "FAIR" INDICATES FEW OR NO CLOUDS BELOW 12,000 FEET WITH NO
SIGNIFICANT WEATHER AND/OR OBSTRUCTIONS TO VISIBILITY.

KSZ001>006-013>018-027>032-041>047-251900-
NORTHWEST KANSAS

CITY           SKY/WX    TMP DP  RH WIND       PRES   REMARKS
GOODLAND       SUNNY     43   8  23 W20G28    29.96S
6HR MIN TEMP:  18; 6HR MAX TEMP:  43;

HAYS           MOSUNNY   44  12  27 S6        30.03S
HILL CITY      SUNNY     44  11  26 SW12      30.02S
6HR MIN TEMP:  17; 6HR MAX TEMP:  44;

RUSSELL        MOSUNNY   47  16  29 S8        30.01F
6HR MIN TEMP:  18; 6HR MAX TEMP:  48;

$$

KSZ061>065-074>080-084>089-251900-
SOUTHWEST KANSAS

CITY           SKY/WX    TMP DP  RH WIND       PRES   REMARKS
DODGE CITY     MOSUNNY   45  14  28 CALM      29.99S
6HR MIN TEMP:  22; 6HR MAX TEMP:  46;

GARDEN CITY    CLOUDY    39   7  26 W7        30.00S
6HR MIN TEMP:  14; 6HR MAX TEMP:  39;

GREAT BEND     CLOUDY    47  16  29 SE10      30.01F
LIBERAL        CLOUDY    44  17  33 N10       29.99S
$$

KSZ066>073-081>083-090>101-251900-
SOUTHEAST KANSAS

CITY           SKY/WX    TMP DP  RH WIND       PRES   REMARKS
CHANUTE        SUNNY     46  29  51 S8        30.10S
6HR MIN TEMP:  22; 6HR MAX TEMP:  46;

COFFEYVILLE    SUNNY     49  32  52 SE7       30.09F
6HR MIN TEMP:  25; 6HR MAX TEMP:  49;

HUTCHINSON     MOSUNNY   46  25  43 S9        30.04F
6HR MIN TEMP:  14; 6HR MAX TEMP:  46;

MEDICINE LODGE   N/A     49  29  46 S15G26    29.99F
NEWTON         CLOUDY    44  25  47 S10       30.06F
PARSONS        SUNNY     48  30  49 SE9       30.11F
6HR MIN TEMP:  23; 6HR MAX TEMP:  48;

WICHITA INTL   MOSUNNY   48  31  51 S9        30.04F
6HR MIN TEMP:  19; 6HR MAX TEMP:  49;

WICHITA JABRA  SUNNY     47  30  51 SE10      30.05S
6HR MIN TEMP:  22; 6HR MAX TEMP:  47;

WICHITA MCCONL SUNNY     47  30  51 SE9       30.05F
WINFIELD       SUNNY     49  34  56 SE12      30.06F
6HR MIN TEMP:  23; 6HR MAX TEMP:  49;

$$

KSZ007>012-019>026-033>040-048>060-102>105-251900-
NORTHEAST KANSAS

CITY           SKY/WX    TMP DP  RH WIND       PRES   REMARKS
CONCORDIA      CLOUDY    43  22  43 W9        30.03F
6HR MIN TEMP:  23; 6HR MAX TEMP:  43;

EMPORIA        CLOUDY    46  23  40 S12       30.06F
6HR MIN TEMP:  20; 6HR MAX TEMP:  46;

LAWRENCE       MOSUNNY   47  26  44 SW12      30.08F
6HR MIN TEMP:  19; 6HR MAX TEMP:  47;

MANHATTAN      PTSUNNY   46  24  42 MISG      30.07S
6HR MIN TEMP:  16; 6HR MAX TEMP:  47;

OLATHE IND     PTSUNNY   46  27  47 SW9       30.09S
6HR MIN TEMP:  20; 6HR MAX TEMP:  46;

OLATHE EXE     MOSUNNY   44  25  47 SW12      30.08S
6HR MIN TEMP:  21; 6HR MAX TEMP:  45;

SALINA         PTSUNNY   45  25  45 VRB7      30.06S
6HR MIN TEMP:  19; 6HR MAX TEMP:  46;

TOPEKA BILLARD PTSUNNY   47  21  35 SW9       30.08R
6HR MIN TEMP:  21; 6HR MAX TEMP:  48;

TOPEKA FORBES  SUNNY     47  25  42 SW9       30.07R
6HR MIN TEMP:  20; 6HR MAX TEMP:  47;

$$



USA.gov is the U.S. government's official web portal to all federal, state and local government web resources and services.